User: anonymous   Login
Location: Lone Wolf Observatory
(41.0360°N, 89.2260°W)
Time: 01:34:05
(UTC-05:00)
Language:

Cosmos 1378 Rocket - Orbit

View from above orbital plane
View from above orbital plane
View from above satellite
View from above satellite

Ground track
Ground track

The orbit data is extracted from the following two-line orbital elements,

1 13272U 82059B   15181.18636155  .00000146  00000-0  14480-4 0  9992
2 13272 082.5118 093.7401 0017928 333.0324 026.9958 14.84384371785373
Epoch (UTC): 30 June 2015 04:28:21
Eccentricity: 0.0017928
inclination: 82.5118°
perigee height: 603 km
apogee height: 628 km
right ascension of ascending node: 93.7401°
argument of perigee: 333.0324°
revolutions per day: 14.84384371
mean anomaly at epoch: 26.9958°
orbit number at epoch: 78537

The dashed part of the orbit path shows where the satellite is in the earth's shadow,  

DLR